TimeEST,TemperatureF,Dew PointF,Humidity,Sea Level PressureIn,VisibilityMPH,Wind Direction,Wind SpeedMPH,Gust SpeedMPH,PrecipitationIn,Events,Conditions,WindDirDegrees,DateUTC
12:09 AM,24.8,21.2,86,30.33,4.0,West,8.1,-,N/A,,Mostly Cloudy,270,2013-01-07 05:09:00
12:34 AM,24.8,21.2,86,30.33,4.0,West,8.1,-,N/A,,Mostly Cloudy,260,2013-01-07 05:34:00
12:56 AM,25.2,21.0,84,30.38,4.0,West,5.8,-,N/A,,Overcast,270,2013-01-07 05:56:00
1:16 AM,24.8,21.2,86,30.34,5.0,West,4.6,-,N/A,,Overcast,280,2013-01-07 06:16:00
1:56 AM,25.2,21.0,84,30.38,5.0,WNW,5.8,-,N/A,,Overcast,300,2013-01-07 06:56:00
2:56 AM,25.2,21.0,84,30.40,5.0,South,3.5,-,N/A,,Overcast,190,2013-01-07 07:56:00
3:56 AM,25.2,21.0,84,30.40,4.0,SSE,3.5,-,N/A,,Overcast,160,2013-01-07 08:56:00
4:56 AM,25.2,21.0,84,30.42,4.0,SSW,3.5,-,N/A,,Overcast,210,2013-01-07 09:56:00
5:56 AM,24.1,20.1,85,30.43,4.0,SW,4.6,-,N/A,,Overcast,220,2013-01-07 10:56:00
6:56 AM,24.1,20.1,85,30.46,4.0,SW,4.6,-,N/A,,Overcast,220,2013-01-07 11:56:00
7:56 AM,23.0,20.1,89,30.49,2.5,SW,5.8,-,N/A,,Overcast,230,2013-01-07 12:56:00
8:43 AM,21.2,19.4,93,30.45,2.5,SSW,5.8,-,N/A,,Scattered Clouds,210,2013-01-07 13:43:00
8:56 AM,21.0,18.1,89,30.50,2.0,SSW,5.8,-,N/A,,Clear,200,2013-01-07 13:56:00
9:31 AM,23.0,19.4,86,30.46,3.0,SSW,5.8,-,N/A,,Clear,200,2013-01-07 14:31:00
9:56 AM,24.1,20.1,85,30.51,3.0,SSW,6.9,-,N/A,,Clear,210,2013-01-07 14:56:00
10:56 AM,27.1,21.0,78,30.50,4.0,South,4.6,-,N/A,,Haze,170,2013-01-07 15:56:00
11:56 AM,30.0,21.0,69,30.46,5.0,South,9.2,-,N/A,,Haze,170,2013-01-07 16:56:00
12:56 PM,31.1,21.0,66,30.43,5.0,South,8.1,-,N/A,,Haze,180,2013-01-07 17:56:00
1:56 PM,32.0,21.0,64,30.41,5.0,South,8.1,-,N/A,,Haze,180,2013-01-07 18:56:00
2:56 PM,32.9,22.1,65,30.39,5.0,South,6.9,-,N/A,,Haze,170,2013-01-07 19:56:00
3:56 PM,32.9,22.1,65,30.38,6.0,South,6.9,-,N/A,,Haze,170,2013-01-07 20:56:00
4:56 PM,32.0,22.1,67,30.37,6.0,SSE,8.1,-,N/A,,Haze,160,2013-01-07 21:56:00
5:56 PM,29.1,21.0,72,30.35,6.0,South,6.9,-,N/A,,Haze,170,2013-01-07 22:56:00
6:56 PM,28.0,21.0,75,30.33,6.0,SSE,9.2,-,N/A,,Haze,160,2013-01-07 23:56:00
7:56 PM,28.0,21.0,75,30.32,6.0,SSE,6.9,-,N/A,,Haze,160,2013-01-08 00:56:00
8:56 PM,27.1,20.1,75,30.32,6.0,SSE,6.9,-,N/A,,Haze,160,2013-01-08 01:56:00
9:56 PM,21.0,17.1,85,30.30,5.0,SE,6.9,-,N/A,,Clear,140,2013-01-08 02:56:00
10:56 PM,21.0,18.1,89,30.31,4.0,Calm,Calm,-,N/A,,Clear,0,2013-01-08 03:56:00
11:19 PM,17.6,14.0,86,30.25,2.5,ESE,5.8,-,N/A,,Clear,120,2013-01-08 04:19:00
11:31 PM,17.6,15.8,93,30.25,3.0,SE,5.8,-,N/A,,Clear,130,2013-01-08 04:31:00
11:56 PM,23.0,19.0,85,30.28,5.0,SSE,9.2,-,N/A,,Clear,160,2013-01-08 04:56:00